sat.trackr.live / text

‹ back to catalog

COSMOS 2563

NORAD 54223 · 2022-145A

PAYLOAD ACTIVE UNKNOWN

§ Identity

Operator
Country
CIS
Launch date
2022-11-02
Launch site
PLMSC
Launch vehicle
Mass (kg)
RCS (m²)

External: N2YO · Heavens-Above · Gunter

§ Orbital elements

Epoch: 2026-05-22T06:22:49.059840Z

Period
717.94 min
Inclination
63.2865°
Eccentricity
0.7054885
Mean motion
2.00574391 rev/d
Perigee alt
1,443.9 km
Apogee alt
38,918.6 km
Semi-major
26,559.4 km
B*
0.0000e+0
RAAN
283.7868°
Arg perigee
269.6534°
Mean anomaly
16.6198°
Rev number
2,604

§ Raw data

COSMOS 25631 54223U 22145A   26142.26584560 -.00001226  00000+0  00000+0 0  99912 54223  63.2865 283.7868 7054885 269.6534  16.6198  2.00574391 26046

JSON: /api/v1/satellites/54223 · /tle

For live sub-satellite position, see the globe view (requires WebGL).

§ Visibility from observer

Set your observer location to see the next 7 days of passes ≥ 10°. The values pass through the URL so the page stays shareable.

No JS? Fill the form by hand. The geolocation button needs JavaScript.